HAL9000 KLAX-KPDX

Flight info

Callsign HAL9000
Flight time N/A
Altitude 38000
Route LADYJ4 CSTRO SHIMR LMT MOXEE TMBRS4
Aircraft L101/H-SDFGHIRWXY/S

Departure

Time 2026-05-04 04:16
Airport Los Angeles International Airport (KLAX)

Arrival

Time N/A
Airport Portland International Airport (KPDX)
Time Latitude Longitude Altitude Speed Heading
2026-05-04 03:41 33.94468 -118.40984 126 ft 0 kts 264°
2026-05-04 04:03 33.94468 -118.40983 131 ft 0 kts 264°
2026-05-04 04:03 33.94471 -118.40960 130 ft 3 kts 247°
2026-05-04 04:03 33.94483 -118.40935 127 ft 3 kts 224°
2026-05-04 04:03 33.94502 -118.40917 125 ft 3 kts 209°
2026-05-04 04:04 33.94522 -118.40905 125 ft 3 kts 202°
2026-05-04 04:04 33.94547 -118.40896 125 ft 3 kts 185°
2026-05-04 04:04 33.94567 -118.40896 126 ft 3 kts 174°
2026-05-04 04:04 33.94593 -118.40899 126 ft 3 kts 174°
2026-05-04 04:05 33.94617 -118.40901 125 ft 3 kts 174°
2026-05-04 04:05 33.94643 -118.40904 128 ft 3 kts 174°
2026-05-04 04:05 33.94669 -118.40908 126 ft 3 kts 174°
2026-05-04 04:05 33.94694 -118.40911 125 ft 2 kts 173°
2026-05-04 04:06 33.94716 -118.40918 126 ft 3 kts 143°
2026-05-04 04:06 33.94733 -118.40940 125 ft 3 kts 114°
2026-05-04 04:06 33.94741 -118.40969 131 ft 3 kts 98°
2026-05-04 04:06 33.94742 -118.41000 126 ft 3 kts 88°
2026-05-04 04:07 33.94742 -118.41014 125 ft 4 kts 84°
2026-05-04 04:08 33.94742 -118.41013 125 ft 0 kts 84°
2026-05-04 04:12 33.94742 -118.41009 130 ft 2 kts 84°
2026-05-04 04:12 33.94745 -118.40972 130 ft 7 kts 84°
2026-05-04 04:12 33.94764 -118.40914 126 ft 10 kts 46°
2026-05-04 04:13 33.94828 -118.40857 126 ft 13 kts 60°
2026-05-04 04:13 33.94851 -118.40737 128 ft 17 kts 83°
2026-05-04 04:13 33.94869 -118.40569 130 ft 22 kts 83°
2026-05-04 04:13 33.94889 -118.40368 126 ft 26 kts 83°
2026-05-04 04:14 33.94914 -118.40142 127 ft 26 kts 81°
2026-05-04 04:14 33.94927 -118.40019 130 ft 12 kts 83°
2026-05-04 04:14 33.94961 -118.39932 127 ft 13 kts 29°
2026-05-04 04:14 33.95031 -118.39953 128 ft 10 kts 296°
2026-05-04 04:15 33.95034 -118.39972 125 ft 0 kts 274°
2026-05-04 04:15 33.95032 -118.40039 130 ft 32 kts 264°
2026-05-04 04:15 33.94981 -118.40548 129 ft 89 kts 265°
2026-05-04 04:16 33.94877 -118.41494 127 ft 132 kts 263°
2026-05-04 04:16 33.94772 -118.42691 317 ft 154 kts 263°
2026-05-04 04:16 33.94638 -118.44016 502 ft 162 kts 261°
2026-05-04 04:16 33.94400 -118.45343 808 ft 163 kts 256°
2026-05-04 04:17 33.94102 -118.46653 1024 ft 163 kts 255°
2026-05-04 04:17 33.93799 -118.47920 901 ft 166 kts 255°
2026-05-04 04:17 33.93517 -118.49173 776 ft 158 kts 255°
2026-05-04 04:17 33.93259 -118.50388 896 ft 160 kts 256°
2026-05-04 04:18 33.92995 -118.51683 1216 ft 158 kts 258°
2026-05-04 04:18 33.92749 -118.53001 1480 ft 166 kts 259°
2026-05-04 04:18 33.92526 -118.54372 1478 ft 167 kts 260°
2026-05-04 04:18 33.92339 -118.55733 1458 ft 156 kts 262°
2026-05-04 04:19 33.92207 -118.56992 1986 ft 151 kts 267°
2026-05-04 04:19 33.92209 -118.58292 2814 ft 161 kts 271°
2026-05-04 04:19 33.92251 -118.59687 3218 ft 172 kts 271°
2026-05-04 04:19 33.92302 -118.61098 3427 ft 170 kts 273°
2026-05-04 04:20 33.92499 -118.62435 4233 ft 157 kts 284°
2026-05-04 04:20 33.92886 -118.63669 5374 ft 162 kts 291°
2026-05-04 04:20 33.93396 -118.64762 6038 ft 181 kts 302°
2026-05-04 04:20 33.94350 -118.65853 5745 ft 200 kts 325°
2026-05-04 04:21 33.95724 -118.66444 4892 ft 221 kts 347°
2026-05-04 04:21 33.97085 -118.66675 5316 ft 172 kts 350°
2026-05-04 04:21 33.98238 -118.66862 5487 ft 180 kts 349°
2026-05-04 04:21 33.99478 -118.67026 6080 ft 197 kts 352°
2026-05-04 04:22 34.00759 -118.67098 7262 ft 196 kts 355°
2026-05-04 04:22 34.02224 -118.67114 7393 ft 248 kts 358°
2026-05-04 04:22 34.03864 -118.67054 8107 ft 227 kts 359°
2026-05-04 04:22 34.05415 -118.66949 7387 ft 237 kts
2026-05-04 04:23 34.06903 -118.66737 7640 ft 199 kts
2026-05-04 04:23 34.08297 -118.66383 7106 ft 207 kts 12°
2026-05-04 04:23 34.09540 -118.65909 7388 ft 197 kts 16°